C/2019 D1 ( Flewelling )

Japanese version
Home page
Updated on September 24, 2019

---------------------------------------------------------------------

* Profile

Discovery Date February 26, 2019
Magnitude 16.7 mag
Discoverer Heather Flewelling (Asteroid Terrestrial-Impact Last Alert System (ATLAS) search program)

* Pictures

* Orbital Elements

Epoch 2019 Apr. 27.0 TT = JDT 2458600.5
T 2019 May 11.84110 TT                                  Williams
q   1.5775425            (2000.0)            P               Q
z  +0.0072547      Peri.   70.47657     +0.40559363     +0.80114809
 +/-0.0000069      Node   231.71747     -0.89449089     +0.44695746
e   0.9885554      Incl.   34.09832     +0.18809533     +0.39798338
From 557 observations 2019 Feb. 26-Aug. 21, mean residual 0".5.

* Finding Charts

* Magnitudes Graph

        m1 = 9.5 + 5 log d + 20.0 log r

---------------------------------------------------------------------

The orbital elements are published on M.P.E.C. 2019-Q135.
The charts are made with StellaNavigator Ver.10 (AstroArts).
The magnitudes graphs are made with Comet for Windows.

---------------------------------------------------------------------

Copyright(C) Seiichi Yoshida (comet@aerith.net). All rights reserved.